Regional Weather Roundup
Issued by NWS

Home | Current Version | Previous Version | Graphics & Text | Print | Product List | Glossary On
Versions: 1 2 3 4 5 6 7 8 9 10 11 12 13 14 15 16 17 18 19 20 21 22 23 24 25 26 27 28 29 30 31 32 33 34 35 36 37 38 39 40 41 42 43 44 45 46 47 48 49 50
000
ASUS43 KLMK 301510
RWRKY
KENTUCKY REGIONAL WEATHER ROUNDUP
NATIONAL WEATHER SERVICE LOUISVILLE KY
1100 AM EDT SAT MAY 30 2015

NOTE "FAIR" INDICATES FEW OR NO CLOUDS BELOW 12,000 FEET
WITH NO SIGNIFICANT WEATHER AND/OR OBSTRUCTIONS TO VISIBILITY.

KYZ001>023-026-027-061>063-070>075-301600-
WESTERN AND SOUTH CENTRAL KENTUCKY

CITY           SKY/WX    TMP DP  RH WIND       PRES   REMARKS
PADUCAH        PTSUNNY   78  66  66 SW13G20   29.99S
HENDERSON      MOSUNNY   79  66  65 S13       30.00S
OWENSBORO      MOSUNNY   80  69  69 S14G21    30.02F
HOPKINSVILLE   MOSUNNY   79  69  71 S13       30.04F
BOWLING GREEN  PTSUNNY   81  68  64 S12       30.08S
GLASGOW        SUNNY     81  65  58 S13       30.10S
$$

KYZ024-025-028>034-038-045-046-053-301600-
NORTH CENTRAL KENTUCKY

CITY           SKY/WX    TMP DP  RH WIND       PRES   REMARKS
LOUISVILLE/SDF MOSUNNY   81  67  62 S13       30.05F
LOUISVILLE/LOU SUNNY     80  67  64 S9        30.06F
FORT KNOX      SUNNY     80  68  66 S13       30.06S
$$

KYZ035>037-039>044-047>052-055>060-089>105-301600-
NORTHEAST KENTUCKY

CITY           SKY/WX    TMP DP  RH WIND       PRES   REMARKS
LEXINGTON      PTSUNNY   77  65  66 S12       30.12S
COVINGTON      MOSUNNY   79  68  69 S12       30.08F
FRANKFORT        N/A     81  66  60 MISG      30.09S
$$

KYZ054-064>069-076>088-106>120-301600-
SOUTHEAST KENTUCKY

CITY           SKY/WX    TMP DP  RH WIND       PRES   REMARKS
JACKSON        MOSUNNY   76  64  66 VRB5      30.17F
LONDON         PTSUNNY   77  62  59 S8        30.16F
SOMERSET       MOSUNNY   77  63  61 S7        30.15S
MIDDLESBORO    MOSUNNY   78  64  61 S7        30.18F
MONTICELLO     MOSUNNY   81  67  62 S10       30.16F
$$




USA.gov is the U.S. government's official web portal to all federal, state and local government web resources and services.